date,time,SUV Intensity [MED/Hr],UV Index,Daily total [MED],Since Last [MED]
11/06/2023,00:02:50,0.000,0.0,0.0,0.0
11/06/2023,00:03:49,0.000,0.0,0.0,0.0
11/06/2023,00:04:50,0.001,0.0,0.0,0.0
11/06/2023,00:05:50,0.001,0.0,0.0,0.0
11/06/2023,00:06:50,0.000,0.0,0.0,0.0
11/06/2023,00:07:49,0.001,0.0,0.0,0.0
11/06/2023,00:08:50,0.000,0.0,0.0,0.0
11/06/2023,00:09:50,0.001,0.0,0.0,0.0
11/06/2023,00:10:49,0.000,0.0,0.0,0.0
11/06/2023,00:11:50,0.000,0.0,0.0,0.0
11/06/2023,00:12:49,0.000,0.0,0.0,0.0
11/06/2023,00:13:50,0.000,0.0,0.0,0.0
11/06/2023,00:14:50,0.001,0.0,0.0,0.0
11/06/2023,00:15:50,0.000,0.0,0.0,0.0
11/06/2023,00:16:49,0.001,0.0,0.0,0.0
11/06/2023,00:17:50,0.000,0.0,0.0,0.0
11/06/2023,00:18:49,0.000,0.0,0.0,0.0
11/06/2023,00:19:49,0.001,0.0,0.0,0.0
11/06/2023,00:20:49,0.000,0.0,0.0,0.0
11/06/2023,00:21:49,0.000,0.0,0.0,0.0
11/06/2023,00:22:50,0.000,0.0,0.0,0.0
11/06/2023,00:23:50,0.000,0.0,0.0,0.0
11/06/2023,00:24:49,0.000,0.0,0.0,0.0
11/06/2023,00:25:50,0.000,0.0,0.0,0.0
11/06/2023,00:26:50,0.000,0.0,0.0,0.0
11/06/2023,00:27:49,0.000,0.0,0.0,0.0
11/06/2023,00:28:50,0.000,0.0,0.0,0.0
11/06/2023,00:29:49,0.000,0.0,0.0,0.0
11/06/2023,00:30:50,0.001,0.0,0.0,0.0
11/06/2023,00:31:50,-0.000,0.0,0.0,0.0
11/06/2023,00:32:49,0.000,0.0,0.0,0.0
11/06/2023,00:33:49,0.001,0.0,0.0,0.0
11/06/2023,00:34:50,0.001,0.0,0.0,0.0
11/06/2023,00:35:50,0.001,0.0,0.0,0.0
11/06/2023,00:36:50,-0.001,0.0,0.0,0.0
11/06/2023,00:37:50,0.000,0.0,0.0,0.0
11/06/2023,00:38:50,0.000,0.0,0.0,0.0
11/06/2023,00:39:49,-0.000,0.0,0.0,0.0
11/06/2023,00:40:50,0.000,0.0,0.0,0.0
11/06/2023,00:41:49,0.000,0.0,0.0,0.0
11/06/2023,00:42:49,0.001,0.0,0.0,0.0
11/06/2023,00:43:50,0.000,0.0,0.0,0.0
11/06/2023,00:44:50,0.001,0.0,0.0,0.0
11/06/2023,00:45:49,0.001,0.0,0.0,0.0
11/06/2023,00:46:50,-0.001,0.0,0.0,0.0
11/06/2023,00:47:49,0.000,0.0,0.0,0.0
11/06/2023,00:48:50,-0.001,0.0,0.0,0.0
11/06/2023,00:49:49,0.001,0.0,0.0,0.0
11/06/2023,00:50:50,0.001,0.0,0.0,0.0
11/06/2023,00:51:49,0.001,0.0,0.0,0.0
11/06/2023,00:52:50,0.000,0.0,0.0,0.0
11/06/2023,00:53:50,0.001,0.0,0.0,0.0
11/06/2023,00:54:50,0.000,0.0,0.0,0.0
11/06/2023,00:55:49,0.000,0.0,0.0,0.0
11/06/2023,00:56:50,0.000,0.0,0.0,0.0
11/06/2023,00:57:50,-0.000,0.0,0.0,0.0
11/06/2023,00:58:49,0.000,0.0,0.0,0.0
11/06/2023,00:59:50,0.001,0.0,0.0,0.0
11/06/2023,01:00:49,0.000,0.0,0.0,0.0
11/06/2023,01:01:49,0.000,0.0,0.0,0.0
11/06/2023,01:02:50,0.000,0.0,0.0,0.0
11/06/2023,01:03:49,0.001,0.0,0.0,0.0
11/06/2023,01:04:49,0.000,0.0,0.0,0.0
11/06/2023,01:05:50,0.001,0.0,0.0,0.0
11/06/2023,01:06:49,-0.000,0.0,0.0,0.0
11/06/2023,01:07:50,0.001,0.0,0.0,0.0
11/06/2023,01:08:49,0.000,0.0,0.0,0.0
11/06/2023,01:09:49,0.001,0.0,0.0,0.0
11/06/2023,01:10:50,0.001,0.0,0.0,0.0
11/06/2023,01:11:50,0.001,0.0,0.0,0.0
11/06/2023,01:12:50,0.001,0.0,0.0,0.0
11/06/2023,01:13:49,-0.000,0.0,0.0,0.0
11/06/2023,01:14:50,0.001,0.0,0.0,0.0
11/06/2023,01:15:50,0.001,0.0,0.0,0.0
11/06/2023,01:16:49,-0.000,0.0,0.0,0.0
11/06/2023,01:17:50,0.001,0.0,0.0,0.0
11/06/2023,01:18:50,0.000,0.0,0.0,0.0
11/06/2023,01:19:49,0.001,0.0,0.0,0.0
11/06/2023,01:20:50,0.001,0.0,0.0,0.0
11/06/2023,01:21:50,0.001,0.0,0.0,0.0
11/06/2023,01:22:50,0.001,0.0,0.0,0.0
11/06/2023,01:23:51,0.001,0.0,0.0,0.0
11/06/2023,01:24:50,0.001,0.0,0.0,0.0
11/06/2023,01:25:50,0.000,0.0,0.0,0.0
11/06/2023,01:26:50,0.001,0.0,0.0,0.0
11/06/2023,01:27:50,0.001,0.0,0.0,0.0
11/06/2023,01:28:50,0.001,0.0,0.0,0.0
11/06/2023,01:29:50,0.001,0.0,0.0,0.0
11/06/2023,01:30:49,0.000,0.0,0.0,0.0
11/06/2023,01:31:50,0.002,0.0,0.0,0.0
11/06/2023,01:32:50,0.002,0.0,0.0,0.0
11/06/2023,01:33:50,0.002,0.0,0.0,0.0
11/06/2023,01:34:50,0.001,0.0,0.0,0.0
11/06/2023,01:35:49,0.001,0.0,0.0,0.0
11/06/2023,01:36:50,0.001,0.0,0.0,0.0
11/06/2023,01:37:50,0.001,0.0,0.0,0.0
11/06/2023,01:38:50,0.001,0.0,0.0,0.0
11/06/2023,01:39:50,0.002,0.0,0.0,0.0
11/06/2023,01:40:49,0.001,0.0,0.0,0.0
11/06/2023,01:41:50,0.001,0.0,0.0,0.0
11/06/2023,01:42:49,0.000,0.0,0.0,0.0
11/06/2023,01:43:50,0.001,0.0,0.0,0.0
11/06/2023,01:44:50,0.001,0.0,0.0,0.0
11/06/2023,01:45:50,0.002,0.0,0.0,0.0
11/06/2023,01:46:50,0.001,0.0,0.0,0.0
11/06/2023,01:47:49,0.000,0.0,0.0,0.0
11/06/2023,01:48:49,0.001,0.0,0.0,0.0
11/06/2023,01:49:50,0.002,0.0,0.0,0.0
11/06/2023,01:50:50,0.001,0.0,0.0,0.0
11/06/2023,01:51:50,0.001,0.0,0.0,0.0
11/06/2023,01:52:50,0.001,0.0,0.0,0.0
11/06/2023,01:53:50,0.001,0.0,0.0,0.0
11/06/2023,01:54:49,0.001,0.0,0.0,0.0
11/06/2023,01:55:50,0.001,0.0,0.0,0.0
11/06/2023,01:56:50,0.002,0.0,0.0,0.0
11/06/2023,01:57:50,0.001,0.0,0.0,0.0
11/06/2023,01:58:49,0.001,0.0,0.0,0.0
11/06/2023,01:59:50,0.001,0.0,0.0,0.0
11/06/2023,02:00:50,0.000,0.0,0.0,0.0
11/06/2023,02:01:50,0.001,0.0,0.0,0.0
11/06/2023,02:02:50,0.001,0.0,0.0,0.0
11/06/2023,02:03:49,0.001,0.0,0.0,0.0
11/06/2023,02:04:49,0.001,0.0,0.0,0.0
11/06/2023,02:05:50,0.000,0.0,0.0,0.0
11/06/2023,02:06:50,0.002,0.0,0.0,0.0
11/06/2023,02:07:50,0.001,0.0,0.0,0.0
11/06/2023,02:08:50,0.000,0.0,0.0,0.0
11/06/2023,02:09:50,0.001,0.0,0.0,0.0
11/06/2023,02:10:49,0.002,0.0,0.0,0.0
11/06/2023,02:11:50,0.001,0.0,0.0,0.0
11/06/2023,02:12:50,0.002,0.0,0.0,0.0
11/06/2023,02:13:50,0.001,0.0,0.0,0.0
11/06/2023,02:14:50,0.000,0.0,0.0,0.0
11/06/2023,02:15:50,0.001,0.0,0.0,0.0
11/06/2023,02:16:50,0.001,0.0,0.0,0.0
11/06/2023,02:17:50,0.000,0.0,0.0,0.0
11/06/2023,02:18:49,0.002,0.0,0.0,0.0
11/06/2023,02:19:50,0.001,0.0,0.0,0.0
11/06/2023,02:20:50,0.001,0.0,0.0,0.0
11/06/2023,02:21:50,0.001,0.0,0.0,0.0
11/06/2023,02:22:50,0.002,0.0,0.0,0.0
11/06/2023,02:23:50,0.001,0.0,0.0,0.0
11/06/2023,02:24:50,0.001,0.0,0.0,0.0
11/06/2023,02:25:49,0.001,0.0,0.0,0.0
11/06/2023,02:26:49,0.000,0.0,0.0,0.0
11/06/2023,02:27:50,0.002,0.0,0.0,0.0
11/06/2023,02:28:50,0.002,0.0,0.0,0.0
11/06/2023,02:29:50,0.002,0.0,0.0,0.0
11/06/2023,02:30:49,0.001,0.0,0.0,0.0
11/06/2023,02:31:50,0.001,0.0,0.0,0.0
11/06/2023,02:32:50,0.001,0.0,0.0,0.0
11/06/2023,02:33:50,0.000,0.0,0.0,0.0
11/06/2023,02:34:50,0.001,0.0,0.0,0.0
11/06/2023,02:35:49,0.001,0.0,0.0,0.0
11/06/2023,02:36:50,0.001,0.0,0.0,0.0
11/06/2023,02:37:50,0.001,0.0,0.0,0.0
11/06/2023,02:38:50,0.002,0.0,0.0,0.0
11/06/2023,02:39:50,0.001,0.0,0.0,0.0
11/06/2023,02:40:49,0.001,0.0,0.0,0.0
11/06/2023,02:41:50,0.001,0.0,0.0,0.0
11/06/2023,02:42:50,0.001,0.0,0.0,0.0
11/06/2023,02:43:49,0.001,0.0,0.0,0.0
11/06/2023,02:44:50,0.002,0.0,0.0,0.0
11/06/2023,02:45:50,0.001,0.0,0.0,0.0
11/06/2023,02:46:50,0.001,0.0,0.0,0.0
11/06/2023,02:47:50,0.001,0.0,0.0,0.0
11/06/2023,02:48:50,0.001,0.0,0.0,0.0
11/06/2023,02:49:50,0.001,0.0,0.0,0.0
11/06/2023,02:50:50,0.001,0.0,0.0,0.0
11/06/2023,02:51:50,0.001,0.0,0.0,0.0
11/06/2023,02:52:50,0.002,0.0,0.0,0.0
11/06/2023,02:53:50,0.002,0.0,0.0,0.0
11/06/2023,02:54:49,0.002,0.0,0.0,0.0
11/06/2023,02:55:50,0.001,0.0,0.0,0.0
11/06/2023,02:56:50,0.001,0.0,0.0,0.0
11/06/2023,02:57:50,0.001,0.0,0.0,0.0
11/06/2023,02:58:50,0.001,0.0,0.0,0.0
11/06/2023,02:59:50,0.001,0.0,0.0,0.0
11/06/2023,03:00:50,0.001,0.0,0.0,0.0
11/06/2023,03:01:50,0.002,0.0,0.0,0.0
11/06/2023,03:02:49,0.001,0.0,0.0,0.0
11/06/2023,03:03:50,0.002,0.0,0.0,0.0
11/06/2023,03:04:50,0.002,0.0,0.0,0.0
11/06/2023,03:05:50,0.001,0.0,0.0,0.0
11/06/2023,03:06:50,0.002,0.0,0.0,0.0
11/06/2023,03:07:50,0.002,0.0,0.0,0.0
11/06/2023,03:08:49,0.001,0.0,0.0,0.0
11/06/2023,03:09:50,0.002,0.0,0.0,0.0
11/06/2023,03:10:49,0.002,0.0,0.0,0.0
11/06/2023,03:11:50,0.002,0.0,0.0,0.0
11/06/2023,03:12:50,0.002,0.0,0.0,0.0
11/06/2023,03:13:50,0.003,0.0,0.0,0.0
11/06/2023,03:14:50,0.002,0.0,0.0,0.0
11/06/2023,03:15:50,0.001,0.0,0.0,0.0
11/06/2023,03:16:50,0.002,0.0,0.0,0.0
11/06/2023,03:17:50,0.003,0.0,0.0,0.0
11/06/2023,03:18:50,0.003,0.0,0.0,0.0
11/06/2023,03:19:49,0.002,0.0,0.0,0.0
11/06/2023,03:20:50,0.002,0.0,0.0,0.0
11/06/2023,03:21:50,0.002,0.0,0.0,0.0
11/06/2023,03:22:50,0.001,0.0,0.0,0.0
11/06/2023,03:23:50,0.002,0.0,0.0,0.0
11/06/2023,03:24:51,0.002,0.0,0.0,0.0
11/06/2023,03:25:50,0.002,0.0,0.0,0.0
11/06/2023,03:26:50,0.002,0.0,0.0,0.0
11/06/2023,03:27:50,0.002,0.0,0.0,0.0
11/06/2023,03:28:50,0.002,0.0,0.0,0.0
11/06/2023,03:29:50,0.001,0.0,0.0,0.0
11/06/2023,03:30:50,0.003,0.0,0.0,0.0
11/06/2023,03:31:49,0.002,0.0,0.0,0.0
11/06/2023,03:32:50,0.003,0.0,0.0,0.0
11/06/2023,03:33:54,0.003,0.0,0.0,0.0
11/06/2023,03:34:51,0.002,0.0,0.0,0.0
11/06/2023,03:35:50,0.003,0.0,0.0,0.0
11/06/2023,03:36:50,0.003,0.0,0.0,0.0
11/06/2023,03:37:50,0.003,0.0,0.0,0.0
11/06/2023,03:38:50,0.002,0.0,0.0,0.0
11/06/2023,03:39:50,0.003,0.0,0.0,0.0
11/06/2023,03:40:50,0.004,0.0,0.0,0.0
11/06/2023,03:41:50,0.003,0.0,0.0,0.0
11/06/2023,03:42:49,0.003,0.0,0.0,0.0
11/06/2023,03:43:50,0.002,0.0,0.0,0.0
11/06/2023,03:44:50,0.004,0.0,0.0,0.0
11/06/2023,03:45:50,0.004,0.0,0.0,0.0
11/06/2023,03:46:50,0.004,0.0,0.0,0.0
11/06/2023,03:47:50,0.004,0.0,0.0,0.0
11/06/2023,03:48:50,0.003,0.0,0.0,0.0
11/06/2023,03:49:50,0.003,0.0,0.0,0.0
11/06/2023,03:50:50,0.004,0.0,0.0,0.0
11/06/2023,03:51:50,0.004,0.0,0.0,0.0
11/06/2023,03:52:50,0.004,0.0,0.0,0.0
11/06/2023,03:53:50,0.005,0.0,0.0,0.0
11/06/2023,03:54:50,0.005,0.0,0.0,0.0
11/06/2023,03:55:50,0.005,0.0,0.0,0.0
11/06/2023,03:56:50,0.005,0.0,0.0,0.0
11/06/2023,03:57:50,0.005,0.0,0.0,0.0
11/06/2023,03:58:50,0.004,0.0,0.0,0.0
11/06/2023,03:59:50,0.005,0.0,0.0,0.0
11/06/2023,04:00:50,0.006,0.0,0.0,0.0
11/06/2023,04:01:50,0.006,0.0,0.0,0.0
11/06/2023,04:02:50,0.006,0.0,0.0,0.0
11/06/2023,04:03:50,0.006,0.0,0.0,0.0
11/06/2023,04:04:50,0.006,0.0,0.0,0.0
11/06/2023,04:05:49,0.007,0.0,0.0,0.0
11/06/2023,04:06:50,0.007,0.0,0.0,0.0
11/06/2023,04:07:50,0.007,0.0,0.001,0.001
11/06/2023,04:08:51,0.007,0.0,0.001,0.0
11/06/2023,04:09:50,0.008,0.0,0.001,0.0
11/06/2023,04:10:50,0.009,0.0,0.001,0.0
11/06/2023,04:11:50,0.007,0.0,0.001,0.0
11/06/2023,04:12:50,0.009,0.0,0.001,0.0
11/06/2023,04:13:49,0.008,0.0,0.001,0.0
11/06/2023,04:14:50,0.009,0.0,0.001,0.0
11/06/2023,04:15:49,0.009,0.0,0.002,0.001
11/06/2023,04:16:50,0.009,0.0,0.002,0.0
11/06/2023,04:17:50,0.010,0.0,0.002,0.0
11/06/2023,04:18:50,0.010,0.0,0.002,0.0
11/06/2023,04:19:50,0.010,0.0,0.002,0.0
11/06/2023,04:20:50,0.011,0.0,0.002,0.0
11/06/2023,04:21:50,0.011,0.0,0.003,0.001
11/06/2023,04:22:50,0.012,0.0,0.003,0.0
11/06/2023,04:23:50,0.012,0.0,0.003,0.0
11/06/2023,04:24:50,0.012,0.0,0.003,0.0
11/06/2023,04:25:49,0.012,0.0,0.003,0.0
11/06/2023,04:26:50,0.013,0.0,0.004,0.001
11/06/2023,04:27:50,0.013,0.0,0.004,0.0
11/06/2023,04:28:50,0.014,0.0,0.004,0.0
11/06/2023,04:29:50,0.014,0.0,0.004,0.0
11/06/2023,04:30:50,0.015,0.0,0.005,0.001
11/06/2023,04:31:50,0.015,0.0,0.005,0.0
11/06/2023,04:32:50,0.015,0.0,0.005,0.0
11/06/2023,04:33:50,0.016,0.0,0.005,0.0
11/06/2023,04:34:50,0.016,0.0,0.006,0.001
11/06/2023,04:35:50,0.017,0.0,0.006,0.0
11/06/2023,04:36:50,0.018,0.0,0.006,0.0
11/06/2023,04:37:50,0.018,0.0,0.006,0.0
11/06/2023,04:38:50,0.019,0.0,0.007,0.001
11/06/2023,04:39:50,0.020,0.0,0.007,0.0
11/06/2023,04:40:50,0.020,0.0,0.007,0.0
11/06/2023,04:41:50,0.020,0.0,0.008,0.001
11/06/2023,04:42:50,0.020,0.0,0.008,0.0
11/06/2023,04:43:50,0.021,0.0,0.008,0.0
11/06/2023,04:44:50,0.022,0.0,0.009,0.001
11/06/2023,04:45:50,0.022,0.0,0.009,0.0
11/06/2023,04:46:50,0.023,0.0,0.009,0.0
11/06/2023,04:47:50,0.025,0.0,0.01,0.001
11/06/2023,04:48:50,0.025,0.0,0.01,0.0
11/06/2023,04:49:50,0.026,0.0,0.011,0.001
11/06/2023,04:50:50,0.026,0.0,0.011,0.0
11/06/2023,04:51:50,0.027,0.0,0.012,0.001
11/06/2023,04:52:50,0.027,0.0,0.012,0.0
11/06/2023,04:53:50,0.029,0.0,0.012,0.0
11/06/2023,04:54:50,0.028,0.0,0.013,0.001
11/06/2023,04:55:50,0.030,0.0,0.013,0.0
11/06/2023,04:56:50,0.031,0.0,0.014,0.001
11/06/2023,04:57:50,0.031,0.0,0.014,0.0
11/06/2023,04:58:49,0.033,0.0,0.015,0.001
11/06/2023,04:59:50,0.033,0.0,0.016,0.001
11/06/2023,05:00:50,0.034,0.0,0.016,0.0
11/06/2023,05:01:50,0.034,0.0,0.017,0.001
11/06/2023,05:02:50,0.035,0.0,0.017,0.0
11/06/2023,05:03:50,0.036,0.0,0.018,0.001
11/06/2023,05:04:50,0.037,0.0,0.018,0.0
11/06/2023,05:05:50,0.038,0.0,0.019,0.001
11/06/2023,05:06:50,0.039,0.0,0.02,0.001
11/06/2023,05:07:50,0.039,0.0,0.02,0.0
11/06/2023,05:08:50,0.041,0.0,0.021,0.001
11/06/2023,05:09:51,0.042,0.0,0.022,0.001
11/06/2023,05:10:50,0.043,0.0,0.022,0.0
11/06/2023,05:11:50,0.043,0.0,0.023,0.001
11/06/2023,05:12:50,0.045,0.0,0.024,0.001
11/06/2023,05:13:50,0.046,0.0,0.025,0.001
11/06/2023,05:14:50,0.048,0.0,0.025,0.0
11/06/2023,05:15:50,0.048,0.0,0.026,0.001
11/06/2023,05:16:50,0.049,0.0,0.027,0.001
11/06/2023,05:17:50,0.051,0.0,0.028,0.001
11/06/2023,05:18:50,0.052,0.0,0.029,0.001
11/06/2023,05:19:50,0.053,0.0,0.03,0.001
11/06/2023,05:20:51,0.053,0.0,0.03,0.0
11/06/2023,05:21:50,0.055,0.0,0.031,0.001
11/06/2023,05:22:50,0.057,0.0,0.032,0.001
11/06/2023,05:23:49,0.058,0.0,0.033,0.001
11/06/2023,05:25:12,0.060,0.0,0.035,0.002
11/06/2023,05:26:51,0.062,0.0,0.036,0.001
11/06/2023,05:27:50,0.063,0.0,0.037,0.001
11/06/2023,05:28:50,0.065,0.0,0.038,0.001
11/06/2023,05:29:50,0.066,0.0,0.039,0.001
11/06/2023,05:30:52,0.067,0.0,0.041,0.002
11/06/2023,05:31:50,0.069,0.0,0.042,0.001
11/06/2023,05:32:50,0.070,0.0,0.043,0.001
11/06/2023,05:33:50,0.072,0.0,0.044,0.001
11/06/2023,05:34:50,0.073,0.0,0.045,0.001
11/06/2023,05:35:49,0.075,0.0,0.046,0.001
11/06/2023,05:36:50,0.076,0.0,0.048,0.002
11/06/2023,05:37:50,0.078,0.0,0.049,0.001
11/06/2023,05:38:50,0.080,0.0,0.05,0.001
11/06/2023,05:39:50,0.080,0.0,0.052,0.002
11/06/2023,05:40:50,0.083,0.0,0.053,0.001
11/06/2023,05:41:51,0.086,0.0,0.054,0.001
11/06/2023,05:42:50,0.085,0.0,0.056,0.002
11/06/2023,05:43:50,0.088,0.0,0.057,0.001
11/06/2023,05:44:50,0.090,0.0,0.059,0.002
11/06/2023,05:45:50,0.093,0.0,0.06,0.001
11/06/2023,05:46:50,0.094,0.0,0.062,0.002
11/06/2023,05:47:50,0.096,0.0,0.063,0.001
11/06/2023,05:48:50,0.098,0.0,0.065,0.002
11/06/2023,05:49:50,0.100,0.0,0.067,0.002
11/06/2023,05:50:50,0.102,0.0,0.068,0.001
11/06/2023,05:51:50,0.104,0.0,0.07,0.002
11/06/2023,05:52:50,0.106,0.0,0.072,0.002
11/06/2023,05:53:50,0.109,0.0,0.074,0.002
11/06/2023,05:54:50,0.110,0.0,0.075,0.001
11/06/2023,05:55:50,0.112,0.0,0.077,0.002
11/06/2023,05:56:50,0.114,0.0,0.079,0.002
11/06/2023,05:57:51,0.116,0.0,0.081,0.002
11/06/2023,05:58:50,0.118,0.0,0.083,0.002
11/06/2023,05:59:51,0.120,0.0,0.085,0.002
11/06/2023,06:00:50,0.123,0.0,0.087,0.002
11/06/2023,06:01:50,0.124,0.0,0.089,0.002
11/06/2023,06:02:50,0.126,0.0,0.091,0.002
11/06/2023,06:03:50,0.129,0.0,0.093,0.002
11/06/2023,06:04:50,0.132,0.0,0.095,0.002
11/06/2023,06:05:50,0.133,0.0,0.098,0.003
11/06/2023,06:06:51,0.137,0.0,0.1,0.002
11/06/2023,06:07:50,0.139,0.0,0.102,0.002
11/06/2023,06:08:50,0.142,0.0,0.105,0.003
11/06/2023,06:09:50,0.145,0.0,0.107,0.002
11/06/2023,06:10:51,0.148,0.0,0.11,0.003
11/06/2023,06:11:51,0.151,0.0,0.112,0.002
11/06/2023,06:12:51,0.153,0.0,0.114,0.002
11/06/2023,06:13:50,0.158,0.0,0.117,0.003
11/06/2023,06:14:50,0.159,0.0,0.12,0.003
11/06/2023,06:15:51,0.161,0.0,0.122,0.002
11/06/2023,06:16:50,0.165,0.0,0.125,0.003
11/06/2023,06:17:50,0.168,0.0,0.128,0.003
11/06/2023,06:18:50,0.171,0.0,0.131,0.003
11/06/2023,06:19:50,0.174,0.0,0.134,0.003
11/06/2023,06:20:50,0.176,0.0,0.136,0.002
11/06/2023,06:21:51,0.180,0.0,0.139,0.003
11/06/2023,06:22:50,0.182,0.0,0.142,0.003
11/06/2023,06:23:50,0.184,0.0,0.145,0.003
11/06/2023,06:24:50,0.188,0.0,0.149,0.004
11/06/2023,06:25:51,0.191,0.0,0.152,0.003
11/06/2023,06:26:50,0.194,0.0,0.155,0.003
11/06/2023,06:27:50,0.197,0.0,0.158,0.003
11/06/2023,06:28:50,0.201,0.0,0.162,0.004
11/06/2023,06:29:51,0.204,0.0,0.165,0.003
11/06/2023,06:30:50,0.208,0.0,0.168,0.003
11/06/2023,06:31:50,0.210,0.0,0.172,0.004
11/06/2023,06:32:51,0.213,0.0,0.175,0.003
11/06/2023,06:33:50,0.217,0.0,0.179,0.004
11/06/2023,06:34:51,0.221,1.0,0.183,0.004
11/06/2023,06:35:50,0.224,1.0,0.186,0.003
11/06/2023,06:36:51,0.227,1.0,0.19,0.004
11/06/2023,06:37:50,0.232,1.0,0.194,0.004
11/06/2023,06:38:50,0.237,1.0,0.198,0.004
11/06/2023,06:39:51,0.240,1.0,0.202,0.004
11/06/2023,06:40:50,0.244,1.0,0.206,0.004
11/06/2023,06:41:50,0.246,1.0,0.21,0.004
11/06/2023,06:42:50,0.251,1.0,0.214,0.004
11/06/2023,06:43:50,0.253,1.0,0.218,0.004
11/06/2023,06:44:50,0.258,1.0,0.223,0.005
11/06/2023,06:45:50,0.260,1.0,0.227,0.004
11/06/2023,06:46:50,0.261,1.0,0.231,0.004
11/06/2023,06:47:50,0.264,1.0,0.236,0.005
11/06/2023,06:48:50,0.269,1.0,0.24,0.004
11/06/2023,06:49:51,0.274,1.0,0.245,0.005
11/06/2023,06:50:50,0.281,1.0,0.249,0.004
11/06/2023,06:51:50,0.286,1.0,0.254,0.005
11/06/2023,06:52:51,0.292,1.0,0.259,0.005
11/06/2023,06:53:50,0.295,1.0,0.264,0.005
11/06/2023,06:54:50,0.298,1.0,0.269,0.005
11/06/2023,06:55:50,0.303,1.0,0.274,0.005
11/06/2023,06:56:50,0.309,1.0,0.279,0.005
11/06/2023,06:57:50,0.314,1.0,0.284,0.005
11/06/2023,06:58:50,0.319,1.0,0.289,0.005
11/06/2023,06:59:51,0.322,1.0,0.294,0.005
11/06/2023,07:00:50,0.329,1.0,0.3,0.006
11/06/2023,07:01:50,0.332,1.0,0.305,0.005
11/06/2023,07:02:50,0.338,1.0,0.311,0.006
11/06/2023,07:03:51,0.344,1.0,0.317,0.006
11/06/2023,07:04:50,0.350,1.0,0.322,0.005
11/06/2023,07:05:50,0.352,1.0,0.328,0.006
11/06/2023,07:06:50,0.356,1.0,0.334,0.006
11/06/2023,07:07:50,0.360,1.0,0.34,0.006
11/06/2023,07:08:50,0.360,1.0,0.346,0.006
11/06/2023,07:09:51,0.366,1.0,0.352,0.006
11/06/2023,07:10:50,0.375,1.0,0.358,0.006
11/06/2023,07:11:50,0.381,1.0,0.365,0.007
11/06/2023,07:12:50,0.366,1.0,0.371,0.006
11/06/2023,07:13:51,0.378,1.0,0.377,0.006
11/06/2023,07:14:50,0.397,1.0,0.384,0.007
11/06/2023,07:15:50,0.404,1.0,0.39,0.006
11/06/2023,07:16:50,0.409,1.0,0.397,0.007
11/06/2023,07:17:51,0.414,1.0,0.404,0.007
11/06/2023,07:18:50,0.419,1.0,0.411,0.007
11/06/2023,07:19:51,0.426,1.0,0.418,0.007
11/06/2023,07:20:51,0.426,1.0,0.425,0.007
11/06/2023,07:21:50,0.427,1.0,0.432,0.007
11/06/2023,07:22:51,0.437,1.0,0.439,0.007
11/06/2023,07:23:50,0.441,1.0,0.447,0.008
11/06/2023,07:24:51,0.447,1.0,0.454,0.007
11/06/2023,07:25:50,0.452,1.0,0.462,0.008
11/06/2023,07:26:51,0.458,1.0,0.469,0.007
11/06/2023,07:27:50,0.461,1.0,0.477,0.008
11/06/2023,07:28:50,0.467,1.0,0.484,0.007
11/06/2023,07:29:51,0.473,1.0,0.492,0.008
11/06/2023,07:30:50,0.478,1.0,0.5,0.008
11/06/2023,07:31:51,0.489,1.0,0.508,0.008
11/06/2023,07:32:51,0.492,1.0,0.516,0.008
11/06/2023,07:33:50,0.496,1.0,0.525,0.009
11/06/2023,07:34:50,0.499,1.0,0.533,0.008
11/06/2023,07:35:51,0.506,1.0,0.541,0.008
11/06/2023,07:36:50,0.514,1.0,0.55,0.009
11/06/2023,07:37:50,0.524,1.0,0.559,0.009
11/06/2023,07:38:51,0.530,1.0,0.567,0.008
11/06/2023,07:39:51,0.534,1.0,0.576,0.009
11/06/2023,07:40:50,0.541,1.0,0.585,0.009
11/06/2023,07:41:50,0.548,1.0,0.594,0.009
11/06/2023,07:42:50,0.555,1.0,0.603,0.009
11/06/2023,07:43:50,0.556,1.0,0.613,0.01
11/06/2023,07:44:51,0.559,1.0,0.622,0.009
11/06/2023,07:45:52,0.567,1.0,0.632,0.01
11/06/2023,07:46:51,0.577,1.0,0.641,0.009
11/06/2023,07:47:50,0.586,1.0,0.651,0.01
11/06/2023,07:48:50,0.590,1.0,0.66,0.009
11/06/2023,07:49:50,0.598,1.0,0.67,0.01
11/06/2023,07:50:50,0.599,1.0,0.68,0.01
11/06/2023,07:51:51,0.605,1.0,0.69,0.01
11/06/2023,07:52:50,0.589,1.0,0.7,0.01
11/06/2023,07:53:51,0.592,1.0,0.71,0.01
11/06/2023,07:54:50,0.627,1.0,0.72,0.01
11/06/2023,07:55:51,0.639,1.0,0.731,0.011
11/06/2023,07:56:50,0.645,1.0,0.742,0.011
11/06/2023,07:57:51,0.650,1.0,0.752,0.01
11/06/2023,07:58:50,0.650,1.0,0.763,0.011
11/06/2023,07:59:51,0.662,2.0,0.774,0.011
11/06/2023,08:00:50,0.665,2.0,0.785,0.011
11/06/2023,08:01:50,0.624,1.0,0.796,0.011
11/06/2023,08:02:51,0.657,2.0,0.806,0.01
11/06/2023,08:03:50,0.677,2.0,0.817,0.011
11/06/2023,08:04:51,0.684,2.0,0.829,0.012
11/06/2023,08:05:50,0.690,2.0,0.84,0.011
11/06/2023,08:06:50,0.664,2.0,0.85,0.01
11/06/2023,08:07:50,0.611,1.0,0.861,0.011
11/06/2023,08:08:51,0.657,2.0,0.871,0.01
11/06/2023,08:09:50,0.729,2.0,0.883,0.012
11/06/2023,08:10:51,0.736,2.0,0.895,0.012
11/06/2023,08:11:50,0.745,2.0,0.908,0.013
11/06/2023,08:12:51,0.747,2.0,0.92,0.012
11/06/2023,08:13:51,0.751,2.0,0.933,0.013
11/06/2023,08:14:50,0.765,2.0,0.945,0.012
11/06/2023,08:15:51,0.769,2.0,0.958,0.013
11/06/2023,08:16:51,0.784,2.0,0.971,0.013
11/06/2023,08:17:50,0.795,2.0,0.984,0.013
11/06/2023,08:18:51,0.802,2.0,0.998,0.014
11/06/2023,08:19:50,0.813,2.0,1.011,0.013
11/06/2023,08:20:51,0.820,2.0,1.025,0.014
11/06/2023,08:21:50,0.828,2.0,1.038,0.013
11/06/2023,08:22:50,0.834,2.0,1.052,0.014
11/06/2023,08:23:51,0.845,2.0,1.066,0.014
11/06/2023,08:24:50,0.852,2.0,1.08,0.014
11/06/2023,08:25:51,0.857,2.0,1.095,0.015
11/06/2023,08:26:50,0.866,2.0,1.109,0.014
11/06/2023,08:27:50,0.876,2.0,1.124,0.015
11/06/2023,08:28:51,0.887,2.0,1.138,0.014
11/06/2023,08:29:51,0.895,2.0,1.153,0.015
11/06/2023,08:30:51,0.903,2.0,1.168,0.015
11/06/2023,08:31:50,0.901,2.0,1.183,0.015
11/06/2023,08:32:51,0.912,2.0,1.198,0.015
11/06/2023,08:33:50,0.921,2.0,1.213,0.015
11/06/2023,08:34:51,0.926,2.0,1.229,0.016
11/06/2023,08:35:51,0.925,2.0,1.244,0.015
11/06/2023,08:36:49,0.935,2.0,1.259,0.015
11/06/2023,08:37:51,0.952,2.0,1.275,0.016
11/06/2023,08:38:50,0.960,2.0,1.291,0.016
11/06/2023,08:39:50,0.972,2.0,1.307,0.016
11/06/2023,08:40:50,0.981,2.0,1.324,0.017
11/06/2023,08:41:50,0.992,2.0,1.34,0.016
11/06/2023,08:42:51,1.004,2.0,1.357,0.017
11/06/2023,08:43:50,1.008,2.0,1.374,0.017
11/06/2023,08:44:51,1.011,2.0,1.39,0.016
11/06/2023,08:45:50,1.011,2.0,1.407,0.017
11/06/2023,08:46:51,1.007,2.0,1.424,0.017
11/06/2023,08:47:50,1.010,2.0,1.441,0.017
11/06/2023,08:48:50,1.020,2.0,1.458,0.017
11/06/2023,08:49:51,1.036,2.0,1.475,0.017
11/06/2023,08:50:50,1.034,2.0,1.492,0.017
11/06/2023,08:51:50,1.031,2.0,1.509,0.017
11/06/2023,08:52:51,1.043,2.0,1.527,0.018
11/06/2023,08:53:50,1.064,2.0,1.544,0.017
11/06/2023,08:54:51,1.077,2.0,1.562,0.018
11/06/2023,08:55:51,1.084,2.0,1.58,0.018
11/06/2023,08:56:50,1.088,3.0,1.598,0.018
11/06/2023,08:57:50,1.053,2.0,1.616,0.018
11/06/2023,08:58:51,1.141,3.0,1.635,0.019
11/06/2023,08:59:50,1.051,2.0,1.653,0.018
11/06/2023,09:00:51,1.041,2.0,1.671,0.018
11/06/2023,09:01:51,1.008,2.0,1.688,0.017
11/06/2023,09:02:50,0.967,2.0,1.704,0.016
11/06/2023,09:03:51,0.869,2.0,1.719,0.015
11/06/2023,09:04:50,0.817,2.0,1.733,0.014
11/06/2023,09:05:50,0.800,2.0,1.747,0.014
11/06/2023,09:06:51,0.790,2.0,1.76,0.013
11/06/2023,09:07:51,0.789,2.0,1.773,0.013
11/06/2023,09:08:50,0.832,2.0,1.787,0.014
11/06/2023,09:09:50,0.813,2.0,1.8,0.013
11/06/2023,09:10:51,0.782,2.0,1.813,0.013
11/06/2023,09:11:51,0.777,2.0,1.826,0.013
11/06/2023,09:12:51,0.810,2.0,1.84,0.014
11/06/2023,09:13:50,0.786,2.0,1.853,0.013
11/06/2023,09:14:51,0.794,2.0,1.866,0.013
11/06/2023,09:15:51,0.811,2.0,1.879,0.013
11/06/2023,09:16:50,0.833,2.0,1.893,0.014
11/06/2023,09:17:50,0.854,2.0,1.907,0.014
11/06/2023,09:18:50,0.885,2.0,1.922,0.015
11/06/2023,09:19:51,0.906,2.0,1.937,0.015
11/06/2023,09:20:51,1.003,2.0,1.953,0.016
11/06/2023,09:21:50,0.945,2.0,1.969,0.016
11/06/2023,09:22:51,0.991,2.0,1.985,0.016
11/06/2023,09:23:50,0.950,2.0,2.002,0.017
11/06/2023,09:24:50,1.125,3.0,2.019,0.017
11/06/2023,09:25:51,0.969,2.0,2.036,0.017
11/06/2023,09:26:51,1.281,3.0,2.055,0.019
11/06/2023,09:27:50,1.311,3.0,2.076,0.021
11/06/2023,09:28:51,1.217,3.0,2.096,0.02
11/06/2023,09:29:50,1.297,3.0,2.118,0.022
11/06/2023,09:30:51,1.332,3.0,2.139,0.021
11/06/2023,09:31:51,1.357,3.0,2.162,0.023
11/06/2023,09:32:51,1.315,3.0,2.184,0.022
11/06/2023,09:33:51,1.429,3.0,2.207,0.023
11/06/2023,09:34:50,1.472,3.0,2.231,0.024
11/06/2023,09:35:51,1.490,3.0,2.256,0.025
11/06/2023,09:36:50,1.486,3.0,2.28,0.024
11/06/2023,09:37:51,1.499,3.0,2.305,0.025
11/06/2023,09:38:51,1.478,3.0,2.33,0.025
11/06/2023,09:39:50,1.513,3.0,2.355,0.025
11/06/2023,09:40:50,1.502,3.0,2.38,0.025
11/06/2023,09:41:51,1.498,3.0,2.405,0.025
11/06/2023,09:42:51,1.480,3.0,2.43,0.025
11/06/2023,09:43:50,1.370,3.0,2.454,0.024
11/06/2023,09:44:51,1.130,3.0,2.476,0.022
11/06/2023,09:45:51,1.365,3.0,2.498,0.022
11/06/2023,09:46:51,1.024,2.0,2.516,0.018
11/06/2023,09:47:50,1.022,2.0,2.534,0.018
11/06/2023,09:48:51,1.267,3.0,2.553,0.019
11/06/2023,09:49:50,0.989,2.0,2.572,0.019
11/06/2023,09:50:50,0.966,2.0,2.588,0.016
11/06/2023,09:51:51,1.001,2.0,2.607,0.019
11/06/2023,09:52:50,0.912,2.0,2.623,0.016
11/06/2023,09:53:50,0.861,2.0,2.638,0.015
11/06/2023,09:55:13,0.827,2.0,2.657,0.019
11/06/2023,09:56:51,0.810,2.0,2.679,0.022
11/06/2023,09:57:50,0.798,2.0,2.692,0.013
11/06/2023,09:58:50,0.783,2.0,2.706,0.014
11/06/2023,09:59:50,0.769,2.0,2.719,0.013